timestamp,wind_dir_avg,wind_spd_max_dir,wind_spd_avg,wind_spd_gust,battery_voltage,lat,long
2022-11-26 00:04:01+00:00,239.0,239.0,3.6,4.08,12.41,47.59359,-54.27349
2022-11-26 00:14:00+00:00,243.0,245.0,4.94,5.48,12.41,47.59359,-54.27349
2022-11-26 00:24:00+00:00,254.0,256.0,7.68,10.33,12.41,47.59359,-54.27349
2022-11-26 00:34:00+00:00,249.0,258.0,7.38,10.35,12.41,47.59359,-54.27349
2022-11-26 00:44:00+00:00,259.0,257.0,9.74,10.44,12.41,47.59359,-54.27349
2022-11-26 00:54:00+00:00,257.0,256.0,9.59,10.49,12.41,47.59359,-54.27349
2022-11-26 01:04:00+00:00,264.0,263.0,9.63,10.47,12.41,47.59359,-54.27349
2022-11-26 01:14:00+00:00,262.0,261.0,9.79,10.44,12.41,47.59359,-54.27349
2022-11-26 01:24:00+00:00,266.0,270.0,7.88,10.17,12.41,47.59359,-54.27349
2022-11-26 01:34:00+00:00,261.0,270.0,7.0,10.07,12.41,47.59359,-54.27349
2022-11-26 01:44:00+00:00,253.0,256.0,6.77,9.53,12.41,47.59359,-54.27349
2022-11-26 01:54:00+00:00,267.0,268.0,7.94,10.53,12.41,47.59359,-54.27349
2022-11-26 02:04:00+00:00,265.0,262.0,3.94,4.64,12.41,47.59359,-54.27349
2022-11-26 02:14:01+00:00,261.0,268.0,4.93,6.57,12.41,47.59359,-54.27349
2022-11-26 02:24:01+00:00,255.0,260.0,5.85,9.02,12.41,47.59359,-54.27349
2022-11-26 02:34:01+00:00,234.0,247.0,6.21,9.45,12.41,47.59359,-54.27349
2022-11-26 02:44:01+00:00,246.0,255.0,7.03,9.61,12.41,47.59359,-54.27349
2022-11-26 02:54:01+00:00,246.0,258.0,6.86,9.85,12.41,47.59359,-54.27349
2022-11-26 03:04:01+00:00,256.0,257.0,7.65,10.35,12.41,47.59359,-54.27349
2022-11-26 03:14:00+00:00,259.0,259.0,8.33,10.27,12.33,47.59359,-54.27349
2022-11-26 03:24:00+00:00,254.0,262.0,5.52,9.48,12.33,47.59359,-54.27349
2022-11-26 03:34:00+00:00,235.0,238.0,4.59,4.96,12.33,47.59359,-54.27349
2022-11-26 03:44:00+00:00,223.0,232.0,5.75,7.09,12.33,47.59359,-54.27349
2022-11-26 03:54:00+00:00,219.0,241.0,5.23,6.57,12.33,47.59359,-54.27349
2022-11-26 04:04:00+00:00,233.0,246.0,5.43,6.39,12.33,47.59359,-54.27349
2022-11-26 04:14:01+00:00,223.0,216.0,5.56,6.78,12.33,47.59359,-54.27349
2022-11-26 04:24:01+00:00,227.0,235.0,5.99,7.91,12.33,47.59359,-54.27349
2022-11-26 04:34:01+00:00,229.0,241.0,6.35,10.42,12.33,47.59359,-54.27349
2022-11-26 04:44:01+00:00,234.0,249.0,6.26,9.51,12.33,47.59359,-54.27349
2022-11-26 04:54:01+00:00,223.0,241.0,6.62,10.93,12.33,47.59359,-54.27349
2022-11-26 05:04:01+00:00,226.0,230.0,5.6,6.68,12.33,47.59359,-54.27349
2022-11-26 05:14:01+00:00,221.0,218.0,5.16,6.45,12.33,47.59359,-54.27349
2022-11-26 05:24:01+00:00,214.0,219.0,4.97,6.32,12.33,47.59359,-54.27349
2022-11-26 05:34:01+00:00,239.0,232.0,4.35,4.74,12.33,47.59359,-54.27349
2022-11-26 05:44:01+00:00,214.0,215.0,6.02,6.76,12.33,47.59359,-54.27349
2022-11-26 05:54:01+00:00,225.0,221.0,3.74,4.85,12.33,47.59359,-54.27349
2022-11-26 06:04:01+00:00,236.0,237.0,4.46,5.04,12.33,47.59359,-54.27349
2022-11-26 06:14:00+00:00,228.0,223.0,5.1,5.73,12.33,47.59359,-54.27349
2022-11-26 06:24:00+00:00,216.0,217.0,4.66,5.3,12.33,47.59359,-54.27349
2022-11-26 06:34:00+00:00,221.0,217.0,2.98,3.82,12.33,47.59359,-54.27349
2022-11-26 06:44:00+00:00,178.0,175.0,5.04,6.21,12.33,47.59359,-54.27349
2022-11-26 06:54:00+00:00,182.0,183.0,5.66,6.35,12.33,47.59359,-54.27349
2022-11-26 07:04:00+00:00,181.0,182.0,4.71,5.14,12.33,47.59359,-54.27349
2022-11-26 07:14:01+00:00,184.0,188.0,4.02,4.5,12.25,47.59359,-54.27349
2022-11-26 07:24:01+00:00,177.0,179.0,5.43,6.09,12.25,47.59359,-54.27349
2022-11-26 07:34:01+00:00,186.0,191.0,5.79,6.8,12.25,47.59359,-54.27349
2022-11-26 07:44:01+00:00,183.0,187.0,4.93,5.48,12.25,47.59359,-54.27349
2022-11-26 07:54:01+00:00,185.0,186.0,5.96,7.03,12.25,47.59359,-54.27349
2022-11-26 08:04:01+00:00,184.0,184.0,6.65,7.54,12.25,47.59359,-54.27349
2022-11-26 08:14:01+00:00,181.0,181.0,7.25,7.99,12.25,47.59359,-54.27349
2022-11-26 08:24:01+00:00,182.0,182.0,6.97,7.83,12.25,47.59359,-54.27349
2022-11-26 08:34:01+00:00,178.0,180.0,7.31,7.82,12.25,47.59359,-54.27349
2022-11-26 08:44:01+00:00,179.0,177.0,6.98,8.08,12.25,47.59359,-54.27349
2022-11-26 08:54:01+00:00,170.0,164.0,6.13,6.75,12.25,47.59359,-54.27349
2022-11-26 09:04:01+00:00,172.0,178.0,6.97,7.58,12.25,47.59359,-54.27349
2022-11-26 09:14:00+00:00,169.0,171.0,6.99,7.78,12.25,47.59359,-54.27349
2022-11-26 09:24:00+00:00,174.0,177.0,6.46,7.1,12.25,47.59359,-54.27349
2022-11-26 09:34:00+00:00,173.0,172.0,6.36,7.44,12.25,47.59359,-54.27349
2022-11-26 09:44:00+00:00,178.0,179.0,6.38,7.46,12.25,47.59359,-54.27349
2022-11-26 09:54:00+00:00,169.0,168.0,7.3,7.94,12.25,47.59359,-54.27349
2022-11-26 10:04:00+00:00,171.0,177.0,7.76,9.27,12.25,47.59359,-54.27349
2022-11-26 10:14:00+00:00,163.0,171.0,6.61,7.28,12.25,47.59359,-54.27349
2022-11-26 10:24:00+00:00,153.0,149.0,6.89,7.59,12.25,47.59359,-54.27349
2022-11-26 10:34:00+00:00,158.0,157.0,8.38,8.96,12.25,47.59359,-54.27349
2022-11-26 10:44:00+00:00,158.0,161.0,8.63,9.88,12.25,47.59359,-54.27349
2022-11-26 10:54:00+00:00,162.0,166.0,8.35,9.01,12.25,47.59359,-54.27349
2022-11-26 11:04:00+00:00,150.0,148.0,9.57,10.37,12.25,47.59359,-54.27349
2022-11-26 11:14:00+00:00,148.0,147.0,9.05,10.95,12.25,47.59359,-54.27349
2022-11-26 11:24:00+00:00,145.0,144.0,8.7,10.16,12.25,47.59359,-54.27349
2022-11-26 11:34:00+00:00,144.0,144.0,9.44,10.03,12.25,47.59359,-54.27349
2022-11-26 11:44:00+00:00,146.0,153.0,8.79,9.85,12.25,47.59359,-54.27349
2022-11-26 11:54:00+00:00,151.0,150.0,8.85,10.37,12.25,47.59359,-54.27349
2022-11-26 12:04:00+00:00,147.0,145.0,9.09,10.48,12.25,47.59359,-54.27349
2022-11-26 12:14:00+00:00,146.0,150.0,9.76,11.94,12.25,47.59359,-54.27349
2022-11-26 12:24:00+00:00,148.0,145.0,9.32,10.46,12.25,47.59359,-54.27349
2022-11-26 12:34:00+00:00,153.0,153.0,11.1,13.66,12.25,47.59359,-54.27349
2022-11-26 12:44:00+00:00,159.0,157.0,11.67,13.34,12.25,47.59359,-54.27349
2022-11-26 12:54:00+00:00,154.0,159.0,10.47,11.69,12.25,47.59359,-54.27349
2022-11-26 13:04:00+00:00,149.0,149.0,10.07,12.21,12.25,47.59359,-54.27349
2022-11-26 13:14:00+00:00,149.0,158.0,9.43,10.61,12.41,47.59359,-54.27349
2022-11-26 13:24:00+00:00,138.0,137.0,8.66,10.07,12.41,47.59359,-54.27349
2022-11-26 13:34:00+00:00,139.0,142.0,9.76,11.36,12.41,47.59359,-54.27349
2022-11-26 13:44:00+00:00,137.0,131.0,9.18,11.11,12.41,47.59359,-54.27349
2022-11-26 13:54:00+00:00,133.0,139.0,9.64,11.89,12.41,47.59359,-54.27349
2022-11-26 14:04:00+00:00,127.0,131.0,9.07,10.31,12.41,47.59359,-54.27349
2022-11-26 15:14:00+00:00,126.0,126.0,9.53,10.7,12.73,47.59359,-54.27349
2022-11-26 15:24:00+00:00,119.0,129.0,6.67,8.55,12.73,47.59359,-54.27349
2022-11-26 15:34:00+00:00,118.0,123.0,7.27,8.39,12.73,47.59359,-54.27349
2022-11-26 15:44:00+00:00,114.0,127.0,5.49,8.81,12.73,47.59359,-54.27349
2022-11-26 15:54:00+00:00,112.0,125.0,5.8,8.64,12.73,47.59359,-54.27349
2022-11-26 16:04:00+00:00,114.0,125.0,5.5,7.21,12.73,47.59359,-54.27349
2022-11-26 16:14:01+00:00,120.0,118.0,7.09,10.36,12.73,47.59359,-54.27349
2022-11-26 16:24:01+00:00,122.0,124.0,8.57,11.69,12.73,47.59359,-54.27349
2022-11-26 16:34:01+00:00,122.0,128.0,7.69,9.25,12.73,47.59359,-54.27349
2022-11-26 16:44:01+00:00,120.0,127.0,7.59,8.98,12.73,47.59359,-54.27349
2022-11-26 16:54:01+00:00,127.0,125.0,9.61,11.88,12.73,47.59359,-54.27349
2022-11-26 17:04:01+00:00,129.0,125.0,9.17,10.97,12.73,47.59359,-54.27349
2022-11-26 17:14:00+00:00,127.0,132.0,8.65,9.92,12.65,47.59359,-54.27349
2022-11-26 17:24:00+00:00,123.0,130.0,8.19,11.24,12.65,47.59359,-54.27349
2022-11-26 17:34:00+00:00,122.0,118.0,8.99,11.82,12.65,47.59359,-54.27349
2022-11-26 17:44:00+00:00,117.0,124.0,7.71,10.71,12.65,47.59359,-54.27349
2022-11-26 17:54:00+00:00,114.0,119.0,5.97,8.38,12.65,47.59359,-54.27349
2022-11-26 18:04:00+00:00,112.0,127.0,5.63,9.41,12.65,47.59359,-54.27349
2022-11-26 18:14:01+00:00,116.0,133.0,6.18,9.8,12.49,47.59359,-54.27349
2022-11-26 18:24:01+00:00,92.0,78.0,4.49,7.73,12.49,47.59359,-54.27349
2022-11-26 18:34:01+00:00,95.0,71.0,5.26,8.05,12.49,47.59359,-54.27349
2022-11-26 18:44:01+00:00,90.0,69.0,4.93,8.98,12.49,47.59359,-54.27349
2022-11-26 18:54:01+00:00,104.0,103.0,7.02,9.7,12.49,47.59359,-54.27349
2022-11-26 19:04:01+00:00,105.0,107.0,5.96,8.95,12.49,47.59359,-54.27349
2022-11-26 19:14:00+00:00,114.0,135.0,4.71,8.9,12.33,47.59359,-54.27349
2022-11-26 19:24:00+00:00,112.0,122.0,5.89,10.02,12.33,47.59359,-54.27349
2022-11-26 19:34:00+00:00,98.0,112.0,6.25,10.22,12.33,47.59359,-54.27349
2022-11-26 19:44:00+00:00,103.0,122.0,6.6,10.5,12.33,47.59359,-54.27349
2022-11-26 19:54:00+00:00,94.0,94.0,5.99,8.78,12.33,47.59359,-54.27349
2022-11-26 20:04:00+00:00,98.0,128.0,4.54,8.49,12.33,47.59359,-54.27349
2022-11-26 20:14:00+00:00,95.0,114.0,5.19,7.92,12.25,47.59359,-54.27349
2022-11-26 20:24:00+00:00,91.0,67.0,5.17,8.51,12.25,47.59359,-54.27349
2022-11-26 20:34:00+00:00,96.0,74.0,4.33,7.96,12.25,47.59359,-54.27349
2022-11-26 20:44:00+00:00,99.0,130.0,6.56,9.54,12.25,47.59359,-54.27349
2022-11-26 20:54:00+00:00,92.0,131.0,6.62,10.2,12.25,47.59359,-54.27349
2022-11-26 21:04:00+00:00,96.0,90.0,7.01,10.8,12.25,47.59359,-54.27349
2022-11-26 21:14:00+00:00,90.0,117.0,6.38,10.66,12.25,47.59359,-54.27349
2022-11-26 21:24:00+00:00,93.0,111.0,7.92,11.41,12.25,47.59359,-54.27349
2022-11-26 21:34:00+00:00,91.0,100.0,6.73,10.13,12.25,47.59359,-54.27349
2022-11-26 21:44:00+00:00,92.0,94.0,6.73,9.91,12.25,47.59359,-54.27349
2022-11-26 21:54:00+00:00,104.0,130.0,6.26,9.58,12.25,47.59359,-54.27349
2022-11-26 22:04:00+00:00,96.0,117.0,6.32,10.21,12.25,47.59359,-54.27349
2022-11-26 22:14:00+00:00,95.0,82.0,6.02,8.82,12.17,47.59359,-54.27349
2022-11-26 22:24:00+00:00,94.0,102.0,6.85,10.71,12.17,47.59359,-54.27349
2022-11-26 22:34:00+00:00,88.0,83.0,5.92,9.25,12.17,47.59359,-54.27349
2022-11-26 22:44:00+00:00,94.0,123.0,5.65,9.03,12.17,47.59359,-54.27349
2022-11-26 22:54:00+00:00,80.0,81.0,6.39,9.6,12.17,47.59359,-54.27349
2022-11-26 23:04:00+00:00,83.0,60.0,6.37,8.98,12.17,47.59359,-54.27349
2022-11-26 23:14:00+00:00,87.0,93.0,5.63,7.64,12.17,47.59359,-54.27349
2022-11-26 23:24:00+00:00,78.0,89.0,6.76,9.68,12.17,47.59359,-54.27349
2022-11-26 23:34:00+00:00,85.0,114.0,7.52,10.73,12.17,47.59359,-54.27349
2022-11-26 23:44:00+00:00,73.0,58.0,8.19,11.85,12.17,47.59359,-54.27349
2022-11-26 23:54:00+00:00,76.0,69.0,7.58,12.18,12.17,47.59359,-54.27349
